Theta_e
318 318 319 319 319 318 318 318 318 318 318 319 319 319 319 319 320 320 321 321 321 321 322 322 323 323 324 325 325 324 323 322 322 323 324 324 324 324 324 324 324 324
315 315 316 316 315 315 315 316 316 316 317 318 318 318 318 319 319 319 319 319 319 320 320 321 322 322 322 323 323 322 322 322 323 323 323 324 324 324 324 324 325 325
313 314 314 314 314 314 314 314 314 315 316 317 317 317 317 318 319 319 319 319 319 319 319 319 320 320 321 321 322 323 323 323 323 323 324 324 324 324 324 323 324 325
312 312 313 313 312 312 312 312 313 314 315 316 316 316 317 317 318 318 319 319 319 318 318 318 318 319 319 320 321 322 323 322 322 323 324 324 324 324 324 324 324 324
311 311 312 312 311 311 311 311 312 312 313 314 315 316 317 317 318 318 318 317 317 317 317 317 317 317 317 318 318 320 321 321 322 323 323 323 323 323 323 323 324 324
310 310 311 310 310 310 310 310 311 311 312 313 313 314 315 315 316 316 316 317 316 316 316 316 315 316 316 316 317 318 319 320 321 321 321 321 321 321 322 322 323 324
309 310 310 310 310 309 309 310 311 311 311 312 312 312 312 313 314 314 315 315 314 314 314 313 313 314 314 315 316 317 318 319 319 319 319 319 319 319 320 322 323 323
308 309 310 311 311 310 310 310 311 311 311 311 311 311 311 312 312 313 313 313 312 312 312 312 312 312 312 313 314 316 317 318 318 319 319 319 318 318 319 322 323 323
306 307 308 309 309 309 309 309 310 310 310 310 311 311 311 311 311 311 312 311 312 311 311 311 312 311 312 312 313 314 315 316 317 318 318 318 318 318 320 322 324 324
305 304 305 305 306 306 306 306 306 307 307 308 308 309 309 310 310 310 310 310 310 310 310 310 310 310 310 311 311 312 313 314 315 316 317 318 318 318 320 323 324 325
303 303 303 303 303 303 303 303 303 303 304 304 305 305 306 307 307 308 308 308 308 308 307 307 308 308 308 309 310 310 311 312 313 315 316 317 318 318 319 322 324 325
303 302 302 302 302 302 301 300 300 300 301 302 302 303 303 304 304 305 305 305 305 305 305 305 305 306 306 307 308 308 309 310 311 313 314 316 317 318 319 321 323 324
302 302 302 301 301 300 299 297 297 297 298 299 300 300 300 300 300 301 302 302 303 303 303 304 304 305 305 305 306 306 307 308 309 311 312 314 315 316 318 320 322 323
301 301 301 300 299 297 296 295 295 296 296 297 297 297 297 297 297 298 298 299 300 301 302 302 303 303 304 304 304 305 306 307 308 309 310 312 313 315 316 318 320 321
300 301 300 299 297 295 294 294 294 295 295 295 295 295 295 295 295 295 296 296 297 298 299 300 301 301 301 302 302 303 304 305 306 307 308 310 311 312 314 315 317 319
298 299 298 296 295 294 294 294 294 294 294 294 294 294 294 294 294 294 294 295 295 295 296 297 298 299 300 300 301 302 303 304 305 306 307 307 308 310 312 313 315 316
296 296 296 295 295 295 295 294 294 294 294 294 294 294 294 294 294 294 294 294 294 294 295 296 297 298 298 299 300 300 301 302 303 304 305 306 306 308 309 311 313 314
295 295 295 295 295 295 294 294 294 294 294 294 294 294 294 294 294 294 294 294 294 293 294 295 297 297 298 298 299 299 300 301 301 302 303 304 305 306 307 308 310 312
295 295 295 294 294 294 294 294 294 294 294 294 294 293 293 294 294 294 294 294 293 293 293 294 296 297 297 298 298 298 298 299 300 301 301 302 303 304 305 306 307 309
296 295 295 294 294 294 294 294 294 294 293 293 293 293 293 293 294 294 294 294 293 293 293 294 295 296 296 297 297 298 298 298 298 299 300 301 301 302 303 304 304 306
296 296 295 295 294 294 294 294 293 293 293 293 293 293 293 293 293 294 294 294 293 293 294 294 294 295 296 296 297 297 297 297 297 298 298 299 300 300 301 302 302 304
296 296 296 295 295 294 294 294 294 293 293 293 293 293 293 293 293 293 293 293 293 293 294 294 294 295 295 296 296 297 297 297 297 297 297 298 298 299 300 300 301 301
297 296 296 296 295 295 295 294 294 293 293 293 293 293 293 293 293 293 293 293 293 293 294 294 294 295 295 295 296 297 297 296 296 296 296 297 297 298 298 299 299 300
297 297 296 296 296 295 295 294 294 294 293 293 293 293 293 293 293 293 293 293 293 293 293 294 295 295 296 296 296 297 297 297 296 296 296 296 296 297 297 298 298 299
297 297 297 296 296 296 295 295 294 294 294 293 293 293 293 293 293 293 293 293 294 293 293 293 294 295 296 296 296 297 297 296 296 296 295 295 295 295 296 297 297 298
297 297 297 297 297 296 296 295 294 294 294 293 293 293 293 293 293 293 293 293 294 294 293 293 293 295 296 296 296 297 297 296 296 295 295 295 295 295 295 296 297 297
Wind_Speed
6 8 9 10 11 10 10 9 9 8 7 8 8 8 9 10 13 15 16 17 19 20 22 23 24 25 25 25 25 26 27 29 30 30 29 28 28 28 29 30 31 31
2 3 4 4 5 5 6 7 7 7 7 9 9 10 11 11 13 16 16 16 18 19 21 22 23 23 23 22 22 24 25 26 25 23 23 24 24 25 26 27 27 28
4 3 3 3 4 4 5 5 5 5 5 7 8 9 10 10 12 15 16 16 17 17 19 21 21 20 19 19 19 21 22 22 21 21 21 22 22 24 25 26 26 26
7 6 5 5 5 5 5 5 5 4 4 5 6 8 9 10 12 14 15 16 17 18 19 20 20 19 18 19 19 20 20 20 21 21 22 22 22 23 25 25 26 27
10 8 7 5 5 5 5 5 6 6 5 5 6 7 9 10 12 14 16 17 19 20 21 21 21 21 20 21 21 21 21 21 21 22 22 22 22 23 24 24 25 26
11 9 7 6 5 6 6 6 7 7 7 7 7 8 9 10 12 14 16 18 19 21 22 22 23 23 23 23 23 23 23 21 22 22 23 24 24 23 23 23 24 25
11 8 6 5 6 7 8 8 8 9 9 9 9 10 10 11 12 14 15 18 20 22 23 24 25 25 25 25 24 24 23 22 23 24 25 25 25 24 23 23 24 23
10 7 5 4 5 7 8 8 8 9 9 9 10 11 11 12 12 13 15 17 19 21 22 23 24 24 25 25 25 24 23 23 23 24 26 27 27 25 23 23 25 23
12 10 7 5 6 8 9 9 9 9 9 9 10 11 12 12 13 13 14 15 17 19 20 21 22 23 24 25 25 25 24 23 23 24 24 25 25 24 23 23 25 24
16 16 14 13 13 13 13 13 13 13 12 12 12 12 12 12 13 13 13 14 15 17 19 20 22 22 23 23 24 24 24 23 23 22 22 22 22 22 22 23 24 23
18 18 17 17 16 16 16 17 17 17 16 16 15 15 15 14 14 13 14 15 16 18 20 21 22 24 24 23 23 23 23 23 22 21 21 20 20 20 21 21 23 23
17 16 16 16 16 16 17 17 18 17 17 17 18 18 18 18 17 17 17 17 18 19 20 21 22 23 24 24 24 23 23 23 22 21 21 20 19 20 20 20 21 23
16 15 14 15 16 17 18 18 18 17 17 18 18 18 19 19 19 19 19 19 19 20 20 22 22 23 24 25 25 26 25 25 24 23 22 21 20 20 19 19 19 21
14 13 13 14 16 18 19 20 20 19 19 19 20 20 21 21 21 20 20 20 20 20 21 22 23 24 26 27 28 27 27 26 26 26 24 23 22 21 20 19 18 20
11 11 12 13 16 19 21 22 22 22 22 22 23 23 23 23 22 22 22 22 22 22 22 23 24 25 28 29 29 28 27 27 27 27 27 25 23 22 21 19 19 19
11 12 13 15 19 21 22 23 24 24 24 25 25 25 25 25 25 25 25 25 25 25 24 24 25 26 27 28 28 28 27 26 26 26 27 27 25 24 23 21 20 19
15 16 17 19 21 22 22 23 23 24 25 25 25 26 26 26 26 26 27 27 28 27 26 25 25 26 27 27 28 28 27 26 25 25 25 26 26 25 24 24 22 21
22 22 23 23 23 23 22 22 23 24 24 24 24 25 25 25 26 27 27 27 27 27 27 26 25 26 27 27 28 29 29 27 26 25 25 25 25 25 24 25 24 24
26 26 26 26 25 25 24 24 24 24 24 24 24 24 25 25 26 26 26 26 26 26 26 25 25 25 26 27 28 29 30 29 28 26 25 24 24 24 24 24 25 25
26 27 28 27 27 27 26 26 26 25 24 24 25 26 27 27 27 26 26 25 25 25 25 25 25 25 26 27 27 29 30 31 31 29 27 25 25 24 24 24 24 25
26 27 28 28 28 28 29 30 29 27 26 26 27 28 29 28 28 27 26 25 24 23 23 24 25 25 26 27 27 28 30 31 32 32 31 29 27 25 25 24 24 24
26 26 27 28 28 29 31 31 30 29 28 27 28 28 29 29 29 28 27 26 24 23 22 23 24 24 26 27 27 28 29 31 32 33 34 33 32 30 28 26 25 25
24 25 26 27 28 29 30 31 30 29 28 28 28 29 30 31 30 29 28 27 26 24 22 22 23 23 25 27 28 28 30 32 34 35 36 37 36 34 32 30 28 27
22 23 25 26 27 28 29 30 30 29 28 28 29 30 31 31 31 30 29 29 27 25 22 21 21 22 23 25 27 28 30 33 35 37 38 39 39 37 36 34 32 30
20 21 23 24 25 27 27 28 28 28 28 28 29 30 32 32 31 30 30 30 29 26 23 21 20 20 21 23 26 27 30 32 35 38 39 41 41 40 39 37 35 33
18 19 21 22 23 25 26 27 27 27 26 27 28 30 31 32 32 32 32 32 32 29 25 21 20 19 19 21 24 26 29 31 34 38 40 41 42 41 40 40 38 36
Wind_Direction
267 269 273 279 283 286 283 285 291 296 300 301 298 297 295 295 293 289 288 290 290 290 290 290 290 289 288 289 291 294 296 297 297 298 298 296 294 294 294 292 290 288
346 309 304 309 317 318 306 302 303 300 298 297 298 297 299 301 296 292 294 295 295 296 296 296 295 295 293 292 293 295 296 297 300 301 300 297 296 296 296 296 295 293
24 5 8 14 16 9 351 341 332 320 312 307 308 308 307 308 300 299 305 307 305 304 304 304 303 302 300 297 295 295 296 299 304 306 305 303 302 301 299 298 299 298
34 28 33 41 39 34 19 5 351 339 326 310 307 308 309 311 306 305 311 310 307 306 307 308 307 306 304 300 297 295 297 301 304 305 305 307 308 307 305 301 298 296
34 32 35 41 42 33 19 10 4 358 348 330 321 315 314 313 309 310 314 311 309 309 310 311 311 309 306 302 299 298 300 303 304 304 304 306 308 309 309 306 301 297
32 36 40 39 34 22 9 10 12 6 360 351 337 324 319 318 316 318 319 317 318 319 318 317 316 315 312 309 307 308 309 310 312 311 309 308 308 310 313 314 306 300
34 47 59 50 32 16 9 13 15 11 9 360 344 333 329 327 325 325 324 322 322 323 324 324 322 320 318 315 313 315 316 316 317 316 315 313 310 310 315 317 312 303
46 62 76 56 29 17 14 17 18 17 12 359 351 350 346 340 336 332 328 326 325 325 326 328 328 327 325 321 317 316 316 317 317 318 317 316 313 312 314 314 312 308
61 66 67 53 37 29 24 23 22 18 9 357 354 354 350 347 346 342 336 332 329 329 329 331 332 333 333 331 327 322 319 317 317 319 319 317 316 314 313 310 310 309
67 65 63 57 51 45 39 34 31 28 23 16 9 2 357 354 351 346 341 337 335 335 336 337 338 338 338 337 335 332 328 322 319 319 319 319 318 316 312 309 309 307
70 66 62 58 54 50 44 39 35 33 32 30 27 24 20 15 8 0 354 350 348 347 346 345 343 342 341 341 339 338 336 332 326 321 319 319 319 317 313 308 307 305
69 63 58 54 51 47 44 40 38 36 34 34 33 32 30 27 24 18 13 9 5 1 357 354 351 347 345 344 343 342 340 337 332 327 322 320 319 318 314 308 306 305
61 56 53 50 45 44 44 44 45 43 40 37 33 31 30 28 26 23 21 18 15 11 7 3 359 354 351 350 349 347 344 340 337 332 325 320 318 317 313 307 305 305
57 56 54 48 43 43 47 49 50 47 43 39 34 31 29 26 25 24 22 21 18 16 13 10 6 2 359 356 354 352 348 344 341 336 330 323 317 315 312 308 304 304
64 64 57 49 45 47 48 49 49 47 43 41 37 33 31 28 26 25 23 22 20 17 15 13 11 11 9 4 358 356 353 349 345 339 336 330 322 317 314 309 303 301
74 70 61 55 51 50 49 48 47 44 42 40 38 35 33 31 28 25 23 22 20 18 16 14 15 16 15 10 4 0 357 353 349 345 341 338 332 325 320 315 310 303
80 74 67 60 56 53 51 50 47 45 42 39 37 35 33 31 28 25 23 21 20 18 16 16 16 17 15 13 10 7 2 358 355 351 347 345 342 337 329 322 318 311
79 74 68 62 58 55 54 51 48 45 42 39 36 33 31 30 27 25 22 20 19 18 18 16 16 17 15 13 13 12 8 5 1 357 353 350 347 345 339 333 326 320
73 70 66 63 60 58 55 52 49 46 43 40 37 33 30 29 27 25 23 20 17 17 18 17 14 14 14 13 13 13 11 9 7 3 359 355 352 349 347 343 337 330
68 65 63 61 60 57 54 52 50 48 45 41 37 33 30 28 26 24 23 21 18 16 16 16 14 12 12 11 12 13 12 11 9 7 4 1 357 354 351 348 345 340
64 63 61 59 57 54 52 51 49 47 44 40 37 34 31 28 26 24 24 22 19 15 14 13 13 11 10 10 10 11 12 12 11 9 7 5 2 360 357 353 348 345
62 60 58 56 54 52 51 49 47 44 42 39 36 33 31 29 27 25 24 23 20 16 13 11 10 10 9 9 8 8 9 11 11 10 9 8 6 4 2 359 355 351
60 57 55 54 52 51 50 48 45 43 41 37 34 32 31 29 29 28 26 24 21 17 13 9 7 9 9 8 7 7 8 9 9 9 9 8 7 6 5 3 1 359
60 55 53 51 50 49 47 46 44 42 39 37 34 32 31 30 30 30 28 27 24 19 13 8 5 6 8 8 8 7 8 8 8 7 7 6 5 5 5 4 3 2
60 54 50 48 45 44 44 43 42 41 39 36 34 32 31 30 30 30 29 29 27 23 16 9 5 5 7 9 9 8 8 8 7 6 6 5 3 2 2 2 2 1
59 52 47 43 40 39 40 40 40 40 39 36 34 32 31 29 29 29 29 28 28 26 21 13 8 7 7 10 13 12 9 7 7 6 6 4 3 2 0 0 360 359